Location: Newark
(59.4564°N, 26.6917°E)
Time: 05:39:00
(UTC+00:00)

SR - Pass Details

Date: 25 November 2019
Orbit: 573 x 882 km, 66.7° (Epoch: 07 December)

Event Time Altitude Azimuth Distance (km) Brightness Sun altitude
Rises 19:08:09 0° 310° (NW) 3,476 ? -40.8°
Reaches altitude 10° 19:10:39 10° 309° (NW) 2,548 ? -41.0°
Enters shadow 19:12:50 24° 305° (NW) 1,771 ? -41.3°
Maximum altitude 19:16:35 70° 227° (SW) 939 - -41.7°
Drops below altitude 10° 19:22:24 10° 145° (SE) 2,499 - -42.3°
Sets 19:24:50 0° 143° (SE) 3,404 - -42.5°
